CW0608 Weather Reports


Display with metric or nautical units.
time (UTC)temp
F
wind
direction
speed
MPH
gust
MPH
rain 1hr
in
rain 24hr
in
rain mn
in
humidity
%
barometer
mb
20260903213806 86 206 1.0 8.0 0.00 0.15 0.15 73 1014.4
20260903213305 85 267 1.0 8.0 0.00 0.15 0.15 74 1014.3
20260903211305 85 271 2.0 3.0 0.00 0.15 0.15 72 1014.3
20260903210805 86 247 1.0 6.0 0.00 0.15 0.15 73 1014.3
20260903210305 86 247 3.0 8.0 0.00 0.15 0.15 70 1014.4
20260903205805 86 249 3.0 8.0 0.00 0.15 0.15 70 1014.4
20260903204805 86 206 3.0 10.0 0.00 0.15 0.15 68 1014.4
20260903203804 86 268 3.0 8.0 0.00 0.15 0.15 68 1014.5
20260903203304 87 212 3.0 8.0 0.00 0.15 0.15 69 1014.6
20260903202806 86 231 2.0 8.0 0.00 0.15 0.15 70 1014.7
20260903202306 87 164 2.0 6.0 0.00 0.15 0.15 70 1014.7
20260903201304 86 209 3.0 12.0 0.00 0.15 0.15 71 1014.9
20260903195306 86 252 2.0 12.0 0.00 0.15 0.15 73 1014.9
20260903194304 86 220 3.0 8.0 0.00 0.15 0.15 72 1015.2
20260903193304 85 196 1.0 9.0 0.00 0.15 0.15 75 1015.4
20260903192806 85 212 3.0 9.0 0.00 0.15 0.15 73 1015.4
20260903192306 85 195 3.0 8.0 0.00 0.15 0.15 76 1015.6
20260903190305 83 249 3.0 9.0 0.00 0.15 0.15 78 1015.8
20260903185804 82 227 2.0 6.0 0.00 0.15 0.15 78 1015.7
20260903185306 83 188 3.0 8.0 0.00 0.15 0.15 78 1015.6
20260903184805 83 242 1.0 8.0 0.00 0.16 0.15 80 1015.6
20260903184304 82 208 2.0 8.0 0.00 0.16 0.15 78 1015.6
20260903183804 82 257 1.0 6.0 0.00 0.16 0.15 83 1015.7
20260903182804 81 231 1.0 6.0 0.00 0.17 0.15 80 1015.7
20260903182306 81 265 1.0 6.0 0.00 0.18 0.15 83 1015.7
20260903181804 81 236 0.0 9.0 0.00 0.18 0.15 83 1015.8
20260903181304 82 252 2.0 9.0 0.00 0.19 0.15 81 1015.8
20260903180806 83 209 3.0 12.0 0.00 0.19 0.15 81 1015.9
20260903174804 82 260 3.0 12.0 0.00 0.22 0.15 83 1016.2
20260903172804 82 248 4.0 9.0 0.00 0.22 0.15 87 1016.6
20260903171305 80 207 5.0 12.0 0.02 0.23 0.15 90 1016.6
20260903170305 78 205 2.0 6.0 0.04 0.46 0.15 94 1016.5
20260903165806 78 209 0.0 3.0 0.05 0.48 0.15 94 1016.3
20260903165306 77 209 1.0 5.0 0.05 0.48 0.15 94 1016.2
20260903164805 77 192 2.0 5.0 0.05 0.48 0.15 95 1016.3
20260903164306 77 203 2.0 3.0 0.05 0.48 0.15 96 1016.3
20260903163304 77 26 1.0 5.0 0.05 0.48 0.15 98 1016.4
20260903162306 76 137 2.0 6.0 0.05 0.48 0.15 96 1016.6
20260903160806 76 221 0.0 3.0 0.01 0.44 0.11 95 1018.4
20260903155805 76 157 1.0 7.0 0.00 0.43 0.10 94 1018.2
20260903151305 77 210 2.0 3.0 0.00 0.43 0.10 94 1018.1
20260903150805 77 262 2.0 7.0 0.00 0.43 0.10 95 1018.0
20260903145306 77 229 1.0 5.0 0.00 0.43 0.10 96 1017.7
20260903144806 76 211 2.0 5.0 0.00 0.43 0.10 96 1017.7
20260903143804 76 223 2.0 6.0 0.00 0.43 0.10 98 1017.7
20260903143304 75 215 1.0 6.0 0.00 0.43 0.10 97 1017.8
20260903142306 75 246 2.0 3.0 0.00 0.43 0.10 98 1017.6
20260903141305 75 149 2.0 7.0 0.00 0.43 0.10 98 1017.2
20260903140804 75 154 2.0 8.0 0.00 0.43 0.10 98 1017.3
20260903140304 75 218 2.0 8.0 0.00 0.43 0.10 98 1017.5
20260903134305 74 138 2.0 9.0 0.00 0.43 0.10 98 1016.7
20260903132306 74 164 3.0 8.0 0.00 0.43 0.10 99 1017.2
20260903131805 74 146 3.0 8.0 0.00 0.43 0.10 99 1017.3
20260903130804 74 164 3.0 10.0 0.00 0.43 0.10 99 1017.8
20260903123805 72 150 4.0 7.0 0.00 0.43 0.10 99 1018.2
20260903122804 72 169 3.0 9.0 0.00 0.43 0.10 99 1018.2
20260903122306 72 167 4.0 9.0 0.00 0.43 0.10 99 1017.8
20260903121306 72 157 3.0 6.0 0.00 0.43 0.10 99 1018.2
20260903120805 72 146 2.0 5.0 0.01 0.43 0.10 99 1018.5
20260903115805 72 138 1.0 3.0 0.02 0.43 0.10 99 1019.1
20260903115306 72 13 0.0 2.0 0.02 0.43 0.10 99 1019.2
20260903114805 72 13 0.0 2.0 0.02 0.43 0.10 99 1019.3
20260903114304 72 13 0.0 3.0 0.02 0.43 0.10 99 1019.3
20260903113805 72 13 2.0 3.0 0.02 0.43 0.10 99 1019.4
20260903113306 72 355 1.0 2.0 0.02 0.43 0.10 99 1019.6
20260903112804 72 355 1.0 2.0 0.03 0.43 0.10 99 1019.6
20260903112305 72 355 1.0 2.0 0.03 0.43 0.10 99 1019.6
20260903110804 72 182 3.0 8.0 0.02 0.42 0.09 99 1019.5
20260903110306 73 9 1.0 3.0 0.01 0.41 0.08 99 1019.9
20260903105306 73 21 2.0 3.0 0.01 0.41 0.08 99 1018.9
20260903103805 73 76 2.0 5.0 0.02 0.41 0.08 99 1018.8
20260903103305 73 76 3.0 6.0 0.02 0.41 0.08 99 1018.6
20260903102306 73 11 1.0 6.0 0.01 0.40 0.07 99 1018.5
20260903101304 73 53 2.0 3.0 0.01 0.40 0.07 99 1018.6
20260903094305 73 318 0.0 1.0 0.00 0.39 0.06 99 1018.7
20260903093804 73 318 0.0 2.0 0.00 0.39 0.06 99 1018.8
20260903093305 73 318 1.0 2.0 0.00 0.39 0.06 99 1018.7
20260903092804 72 13 0.0 3.0 0.00 0.39 0.06 99 1018.6
20260903092306 73 13 0.0 3.0 0.00 0.39 0.06 99 1018.4
20260903091304 73 95 1.0 5.0 0.00 0.39 0.06 99 1018.0
20260903085805 73 146 1.0 3.0 0.00 0.39 0.06 99 1017.7
20260903084804 73 148 0.0 5.0 0.00 0.39 0.06 99 1018.0
20260903081804 73 123 0.0 3.0 0.00 0.39 0.06 99 1018.1
20260903080304 73 84 0.0 2.0 0.00 0.39 0.06 99 1018.1
20260903075806 73 84 1.0 2.0 0.00 0.39 0.06 99 1018.2
20260903074805 73 84 0.0 3.0 0.00 0.39 0.06 99 1018.3
20260903073804 73 84 1.0 3.0 0.00 0.39 0.06 99 1018.1
20260903072804 72 83 0.0 3.0 0.00 0.39 0.06 99 1018.0
20260903071804 72 66 2.0 3.0 0.00 0.39 0.06 99 1017.9
20260903071305 72 47 0.0 3.0 0.00 0.39 0.06 99 1018.0
20260903070805 72 47 1.0 3.0 0.00 0.39 0.06 99 1018.0
20260903065306 72 40 1.0 2.0 0.00 0.39 0.06 99 1017.9
20260903064806 72 38 0.0 3.0 0.00 0.39 0.06 99 1018.1
20260903063304 71 114 0.0 3.0 0.00 0.39 0.06 99 1018.2
20260903062806 71 140 1.0 2.0 0.00 0.39 0.06 99 1018.0
20260903062306 71 140 1.0 2.0 0.00 0.39 0.06 99 1017.7
20260903060804 71 140 0.0 0.0 0.00 0.39 0.06 98 1017.7
20260903060304 71 140 0.0 0.0 0.00 0.39 0.06 98 1017.8
20260903055804 71 140 0.0 0.0 0.00 0.39 0.06 98 1017.9
20260903053805 71 140 0.0 0.0 0.00 0.39 0.06 98 1017.9
20260903045804 71 140 0.0 0.0 0.06 0.39 0.06 98 1018.2
20260903045306 71 140 0.0 1.0 0.06 0.39 0.06 98 1018.2
20260903044804 71 140 0.0 1.0 0.06 0.39 0.06 98 1018.3
20260903044305 71 140 0.0 1.0 0.06 0.39 0.06 98 1018.4
20260903043804 71 140 0.0 1.0 0.06 0.39 0.06 98 1018.3
20260903042805 71 140 0.0 1.0 0.06 0.39 0.06 98 1018.4
20260903040305 71 140 0.0 2.0 0.00 0.33 0.00 98 1018.7
20260903035306 71 139 0.0 0.0 0.00 0.33 0.33 98 1018.6
20260903034804 71 139 0.0 0.0 0.00 0.33 0.33 98 1018.7
20260903034304 71 139 0.0 0.0 0.00 0.33 0.33 98 1018.9
20260903033805 71 139 0.0 0.0 0.00 0.33 0.33 98 1019.0
20260903033304 71 139 0.0 0.0 0.00 0.33 0.33 98 1018.9
20260903032805 70 139 0.0 0.0 0.00 0.33 0.33 98 1019.0
20260903031804 70 139 0.0 0.0 0.00 0.33 0.33 98 1019.0
20260903031305 70 139 0.0 0.0 0.00 0.33 0.33 98 1018.8
20260903030804 70 139 0.0 0.0 0.00 0.33 0.33 98 1018.8
20260903024305 71 139 1.0 3.0 0.00 0.33 0.33 98 1018.7
20260903023804 71 139 1.0 3.0 0.00 0.33 0.33 98 1018.5
20260903023304 71 139 0.0 0.0 0.00 0.33 0.33 98 1018.7
20260903022805 71 139 0.0 0.0 0.00 0.33 0.33 98 1018.9
20260903022306 71 139 0.0 0.0 0.00 0.33 0.33 98 1018.8
20260903021804 71 139 0.0 0.0 0.00 0.33 0.33 98 1019.0
20260903021304 71 139 0.0 0.0 0.00 0.33 0.33 97 1019.1
20260903015806 71 139 0.0 0.0 0.00 0.33 0.33 97 1019.0
20260903014804 71 139 0.0 0.0 0.00 0.33 0.33 97 1018.8
20260903014304 71 139 0.0 0.0 0.00 0.33 0.33 97 1018.8
20260903013805 71 139 0.0 0.0 0.00 0.33 0.33 97 1018.9
20260903013305 71 139 0.0 0.0 0.00 0.33 0.33 97 1018.7
20260903011804 71 139 0.0 0.0 0.00 0.33 0.33 97 1018.4
20260903011304 72 139 0.0 0.0 0.00 0.33 0.33 97 1018.4
20260903010804 72 139 0.0 0.0 0.00 0.33 0.33 97 1018.6
20260903005804 72 139 0.0 0.0 0.00 0.33 0.33 97 1018.3
20260903005306 72 140 0.0 0.0 0.00 0.33 0.33 97 1018.6
20260903004304 72 148 0.0 0.0 0.00 0.33 0.33 97 1018.2
20260903002804 72 148 0.0 0.0 0.00 0.33 0.33 96 1018.6
20260903000304 73 151 1.0 3.0 0.00 0.33 0.33 95 1018.6
20260902235805 73 152 0.0 3.0 0.00 0.33 0.33 95 1018.8
20260902235306 73 152 1.0 3.0 0.00 0.33 0.33 95 1018.6
20260902234804 73 124 1.0 3.0 0.00 0.33 0.33 95 1018.5
20260902232805 73 150 0.0 2.0 0.00 0.33 0.33 95 1018.7
20260902231804 74 150 1.0 2.0 0.00 0.33 0.33 94 1018.6
20260902230304 74 160 0.0 5.0 0.00 0.33 0.33 94 1018.7
20260902225804 74 161 0.0 5.0 0.00 0.33 0.33 94 1018.6
20260902224304 74 142 1.0 3.0 0.00 0.33 0.33 94 1018.5
20260902222804 74 142 1.0 3.0 0.00 0.33 0.33 94 1018.5
20260902222306 75 164 1.0 3.0 0.00 0.33 0.33 93 1018.6
20260902221804 74 163 1.0 5.0 0.00 0.33 0.33 94 1018.6
20260902221305 75 150 2.0 6.0 0.00 0.33 0.33 94 1018.6
20260902214805 74 146 2.0 5.0 0.00 0.33 0.33 94 1018.9